Location: Brachstadt
(48.6975°N, 10.6755°E)
Time: 15:08:01
(UTC+00:00)

SPOT 5 - Pass Details

Date: 18 September 2020
Orbit: 623 x 815 km, 98.3° (Epoch: 24 October)

Event Time Altitude Azimuth Distance (km) Brightness Sun altitude
Exits shadow 20:40:08 47° 11° (N) 1,038 3.8 -30.2°
Drops below altitude 10° 20:44:02 10° 351° (N) 2,392 6.2 -30.6°
Sets 20:46:26 0° 349° (NNW) 3,340 7.1 -30.9°
